EN

Hourly Weather Almansa

Today, 20 January, Wednesday

Time Temperature Precipitation Wind Pressure Humidity
00:00 +5°C° 0 mm 1 mps 703 mmHg 80%
01:00 +5°C° 0 mm 1 mps 702 mmHg 81%
02:00 +4°C° 0 mm 1 mps 702 mmHg 81%
03:00 +4°C° 0 mm 1 mps 701 mmHg 82%
04:00 +4°C° 0 mm 1 mps 701 mmHg 82%
05:00 +4°C° 0 mm 1 mps 700 mmHg 82%
06:00 +4°C° 0 mm 1 mps 700 mmHg 82%
07:00 +5°C° 0 mm 1 mps 700 mmHg 80%
08:00 +6°C° 0 mm 1 mps 701 mmHg 78%
09:00 +7°C° 0 mm 1 mps 701 mmHg 75%
10:00 +8°C° 0 mm 2 mps 701 mmHg 68%
11:00 +9°C° 0 mm 3 mps 701 mmHg 61%
12:00 +10°C° 0 mm 4 mps 701 mmHg 54%
13:00 +10°C° 0 mm 4 mps 700 mmHg 52%
14:00 +10°C° 0 mm 4 mps 699 mmHg 51%
15:00 +10°C° 0 mm 4 mps 699 mmHg 49%
16:00 +8°C° 0 mm 4 mps 698 mmHg 54%
17:00 +8°C° 0 mm 3 mps 698 mmHg 60%
18:00 +5°C° 0 mm 3 mps 698 mmHg 65%
19:00 +7°C° 0 mm 3 mps 698 mmHg 69%
20:00 +7°C° 0 mm 3 mps 698 mmHg 73%
21:00 +7°C° 0 mm 3 mps 698 mmHg 77%
22:00 +6°C° 0 mm 4 mps 699 mmHg 78%
23:00 +6°C° 0 mm 5 mps 699 mmHg 80%

Tomorrow, 21 January, Thursday

Time Temperature Precipitation Wind Pressure Humidity
00:00 +6°C° 0 mm 5 mps 699 mmHg 81%
01:00 +6°C° 0 mm 5 mps 699 mmHg 83%
02:00 +6°C° 0 mm 5 mps 699 mmHg 84%
03:00 +5°C° 0 mm 5 mps 699 mmHg 86%
04:00 +4°C° 0 mm 6 mps 699 mmHg 86%
05:00 +4°C° 0 mm 6 mps 700 mmHg 86%
06:00 +4°C° 0 mm 6 mps 700 mmHg 87%
07:00 +5°C° 0 mm 7 mps 700 mmHg 85%
08:00 +6°C° 0 mm 8 mps 701 mmHg 83%
09:00 +6°C° 0 mm 8 mps 701 mmHg 81%
10:00 +8°C° 0 mm 9 mps 702 mmHg 75%
11:00 +9°C° 0 mm 10 mps 702 mmHg 69%
12:00 +10°C° 0 mm 12 mps 702 mmHg 64%
13:00 +10°C° 0 mm 12 mps 702 mmHg 64%
14:00 +9°C° 0 mm 12 mps 701 mmHg 65%
15:00 +9°C° 0 mm 12 mps 701 mmHg 65%
16:00 +8°C° 0 mm 11 mps 701 mmHg 69%
17:00 +8°C° 0 mm 10 mps 701 mmHg 72%
18:00 +7°C° 0 mm 8 mps 701 mmHg 75%
19:00 +7°C° 0 mm 8 mps 701 mmHg 77%
20:00 +8°C° 0 mm 7 mps 700 mmHg 78%
21:00 +8°C° 0 mm 7 mps 700 mmHg 80%
22:00 +8°C° 0 mm 7 mps 700 mmHg 80%
23:00 +8°C° 0 mm 7 mps 700 mmHg 79%

Day after tomorrow, 22 January, Friday

Time Temperature Precipitation Wind Pressure Humidity
00:00 +8°C° 0 mm 6 mps 700 mmHg 78%
01:00 +8°C° 0 mm 6 mps 699 mmHg 80%
02:00 +8°C° 0 mm 6 mps 698 mmHg 81%
03:00 +8°C° 0 mm 6 mps 698 mmHg 82%
04:00 +8°C° 0.1 mm 6 mps 698 mmHg 82%
05:00 +8°C° 0.1 mm 6 mps 697 mmHg 81%
06:00 +8°C° 0.1 mm 6 mps 697 mmHg 81%
07:00 +9°C° 0 mm 8 mps 696 mmHg 79%
08:00 +8°C° 0 mm 10 mps 696 mmHg 77%
09:00 +9°C° 0 mm 12 mps 696 mmHg 76%
10:00 +9°C° 0.1 mm 14 mps 696 mmHg 70%
11:00 +9°C° 0.1 mm 16 mps 696 mmHg 64%
12:00 +8°C° 0.1 mm 19 mps 696 mmHg 58%
13:00 +7°C° 0 mm 18 mps 696 mmHg 60%
14:00 +7°C° 0 mm 18 mps 696 mmHg 61%
15:00 +6°C° 0 mm 17 mps 696 mmHg 63%
16:00 +5°C° 0 mm 17 mps 696 mmHg 65%
17:00 +5°C° 0 mm 17 mps 696 mmHg 66%
18:00 +3°C° 0 mm 17 mps 697 mmHg 67%
19:00 +3°C° 0 mm 17 mps 697 mmHg 68%
20:00 +2°C° 0 mm 17 mps 697 mmHg 69%
21:00 +2°C° 0 mm 17 mps 698 mmHg 70%
22:00 +1°C° 0 mm 17 mps 698 mmHg 70%
23:00 +1°C° 0 mm 17 mps 699 mmHg 71%

23 January, Saturday

Time Temperature Precipitation Wind Pressure Humidity
00:00 +1°C° 0 mm 16 mps 699 mmHg 72%
01:00 0°C° 0 mm 14 mps 700 mmHg 73%
02:00 +1°C° 0 mm 11 mps 700 mmHg 74%
03:00 +1°C° 0 mm 9 mps 700 mmHg 74%
04:00 +1°C° 0 mm 9 mps 700 mmHg 75%
05:00 +1°C° 0 mm 9 mps 700 mmHg 76%
06:00 +1°C° 0 mm 10 mps 700 mmHg 77%
07:00 +2°C° 0 mm 10 mps 700 mmHg 75%
08:00 +2°C° 0 mm 11 mps 701 mmHg 73%
09:00 +3°C° 0 mm 11 mps 701 mmHg 71%
10:00 +4°C° 0 mm 12 mps 701 mmHg 67%
11:00 +4°C° 0 mm 13 mps 701 mmHg 64%
12:00 +5°C° 0 mm 14 mps 701 mmHg 60%
13:00 +5°C° 0 mm 14 mps 700 mmHg 60%
14:00 +6°C° 0 mm 14 mps 700 mmHg 59%
15:00 +6°C° 0 mm 14 mps 700 mmHg 59%
16:00 +5°C° 0 mm 12 mps 699 mmHg 64%
17:00 +5°C° 0 mm 10 mps 699 mmHg 68%
18:00 +5°C° 0 mm 8 mps 698 mmHg 73%
19:00 +5°C° 0 mm 8 mps 698 mmHg 74%
20:00 +5°C° 0 mm 8 mps 697 mmHg 75%
21:00 +4°C° 0 mm 8 mps 697 mmHg 76%
22:00 +5°C° 0 mm 8 mps 697 mmHg 77%
23:00 +5°C° 0 mm 9 mps 696 mmHg 79%

24 January, Sunday

Time Temperature Precipitation Wind Pressure Humidity
00:00 +5°C° 0 mm 10 mps 696 mmHg 80%
01:00 +6°C° 0.1 mm 11 mps 695 mmHg 80%
02:00 +7°C° 0.1 mm 13 mps 695 mmHg 80%
03:00 +6°C° 0.1 mm 14 mps 695 mmHg 81%
04:00 +6°C° 0 mm 15 mps 695 mmHg 78%
05:00 +5°C° 0 mm 15 mps 696 mmHg 75%
06:00 +5°C° 0 mm 16 mps 696 mmHg 72%
07:00 +5°C° 0.1 mm 15 mps 697 mmHg 73%
08:00 +5°C° 0.1 mm 15 mps 698 mmHg 73%
09:00 +5°C° 0.1 mm 14 mps 699 mmHg 74%
10:00 +6°C° 0 mm 15 mps 699 mmHg 68%
11:00 +8°C° 0 mm 15 mps 700 mmHg 62%
12:00 +9°C° 0 mm 15 mps 700 mmHg 56%
13:00 +9°C° 0 mm 13 mps 700 mmHg 57%
14:00 +9°C° 0 mm 12 mps 699 mmHg 59%
15:00 +8°C° 0 mm 10 mps 699 mmHg 60%
16:00 +8°C° 0 mm 10 mps 700 mmHg 63%
17:00 +7°C° 0 mm 9 mps 700 mmHg 66%
18:00 +6°C° 0 mm 9 mps 700 mmHg 69%
19:00 +6°C° 0 mm 9 mps 700 mmHg 69%
20:00 +6°C° 0 mm 9 mps 701 mmHg 70%
21:00 +6°C° 0 mm 8 mps 701 mmHg 70%
22:00 +6°C° 0 mm 9 mps 701 mmHg 72%
23:00 +6°C° 0 mm 9 mps 701 mmHg 73%

25 January, Monday

Time Temperature Precipitation Wind Pressure Humidity
00:00 +6°C° 0 mm 10 mps 701 mmHg 74%
01:00 +6°C° 0 mm 9 mps 701 mmHg 76%
02:00 +5°C° 0 mm 9 mps 701 mmHg 78%
03:00 +5°C° 0 mm 9 mps 701 mmHg 80%
04:00 +5°C° 0 mm 9 mps 701 mmHg 81%
05:00 +5°C° 0 mm 9 mps 701 mmHg 82%
06:00 +5°C° 0 mm 8 mps 701 mmHg 83%
07:00 +5°C° 0 mm 8 mps 701 mmHg 81%
08:00 +5°C° 0 mm 8 mps 702 mmHg 79%
09:00 +5°C° 0 mm 8 mps 702 mmHg 77%
10:00 +6°C° 0 mm 8 mps 703 mmHg 72%
11:00 +9°C° 0 mm 8 mps 703 mmHg 66%
12:00 +10°C° 0 mm 8 mps 703 mmHg 60%
13:00 +10°C° 0 mm 8 mps 703 mmHg 60%
14:00 +10°C° 0 mm 8 mps 703 mmHg 59%
15:00 +10°C° 0 mm 7 mps 703 mmHg 58%
16:00 +9°C° 0 mm 7 mps 703 mmHg 64%
17:00 +8°C° 0 mm 6 mps 703 mmHg 70%
18:00 +7°C° 0 mm 5 mps 704 mmHg 76%
19:00 +7°C° 0 mm 5 mps 704 mmHg 81%
20:00 +6°C° 0 mm 5 mps 704 mmHg 85%
21:00 +6°C° 0 mm 5 mps 705 mmHg 89%
22:00 +6°C° 0 mm 5 mps 705 mmHg 89%
23:00 +6°C° 0 mm 5 mps 705 mmHg 90%
Show more